{"data":{"norad_id":81844,"epoch":"2026-05-23T10:54:26.786880Z","epoch_age_seconds":208720,"freshness":"STALE","line1":"1 81844U          26143.45447670  .00004691  00000+0  16143-2 0  9994","line2":"2 81844  82.9099 149.8549 0060159  19.0316 341.3101 14.34817576646066","mean_motion":14.34817576,"eccentricity":0.0060159,"inclination_deg":82.9099,"raan_deg":149.8549,"arg_perigee_deg":19.0316,"mean_anomaly_deg":341.3101,"bstar":0.0016143,"rev_number":64606,"period_min":100.36119044586,"perigee_km":732.63608733129,"apogee_km":818.70929477208,"semimajor_km":7153.8096910517,"source":"CELESTRAK","updated_at":"2026-05-25T13:38:11.086105Z"}}